This demonstration page uses our WeatherBlox Daily Observations layout. Learn more.

Left ArrowRight Arrow

41.86663, -103.66717

Hourly Observations for April 21, 2016

Temp ( °F °C ) Dew Point ( °F °C ) Humidity (%) Winds ( mph kmh ) Pressure ( in mb ) Visibility ( mi km ) Precip ( " mm )
12:53 am 00:53 Clear 39 3.9 34 1.1 82 82 NNW 5 7 30.08 1019 10 16 N/A
1:53 am 01:53 Clear 36 2.2 33 0.6 89 89 NW 7 11 30.08 1019 10 16 N/A
2:53 am 02:53 Partly Cloudy 38 3.3 34 1.1 86 86 WNW 10 17 30.07 1018 10 16 N/A
3:53 am 03:53 Partly Cloudy 36 2.2 33 0.6 89 89 NW 13 20 30.08 1019 10 16 N/A
4:53 am 04:53 Clear 35 1.7 33 0.6 93 93 NW 9 15 30.09 1019 10 16 N/A
5:53 am 05:53 Clear 35 1.7 32 undefined 89 89 NW 8 13 30.10 1019 10 16 N/A
6:53 am 06:53 Sunny 37 2.8 33 0.6 86 86 NW 9 15 30.12 1020 10 16 N/A
7:53 am 07:53 Sunny 43 6.1 37 2.8 80 80 WNW 8 13 30.14 1021 10 16 N/A
8:53 am 08:53 Sunny 49 9.4 39 3.9 69 69 WNW 10 17 30.14 1021 10 16 N/A
9:53 am 09:53 Sunny 56 13.3 42 5.6 60 60 W 9 15 30.13 1020 10 16 N/A
10:53 am 10:53 Sunny 60 15.6 42 5.6 52 52 W 12 19 30.12 1020 10 16 N/A
11:53 am 11:53 Sunny 64 17.8 38 3.3 38 38 NW 10 17 30.11 1020 10 16 N/A
12:53 pm 12:53 Sunny 66 18.9 38 3.3 36 36 NNW 9 15 30.08 1019 10 16 N/A
1:53 pm 13:53 Sunny 69 20.6 38 3.3 32 32 VRB 7 11 30.07 1018 10 16 N/A
2:53 pm 14:53 Sunny 69 20.6 35 1.7 29 29 N N/A 30.06 1018 10 16 N/A
3:53 pm 15:53 Sunny 71 21.7 34 1.1 26 26 VRB 3 6 30.05 1018 10 16 N/A
4:53 pm 16:53 Sunny 69 20.6 32 undefined 25 25 N N/A 30.06 1018 10 16 N/A
5:53 pm 17:53 Sunny 69 20.6 34 1.1 27 27 E 9 15 30.06 1018 10 16 N/A
6:53 pm 18:53 Sunny 65 18.3 38 3.3 37 37 SE 6 9 30.06 1018 10 16 N/A
7:53 pm 19:53 Clear 59 15 38 3.3 46 46 SE 6 9 30.07 1018 10 16 N/A
8:53 pm 20:53 Clear 54 12.2 39 3.9 57 57 SE 6 9 30.08 1019 10 16 N/A
9:53 pm 21:53 Clear 49 9.4 39 3.9 69 69 E 8 13 30.09 1019 10 16 N/A
10:53 pm 22:53 Clear 49 9.4 38 3.3 66 66 ESE 3 6 30.07 1018 10 16 N/A
11:53 pm 23:53 Clear 46 7.8 37 2.8 71 71 ESE 8 13 30.07 1018 10 16 N/A

Powered by AerisWeather